Location: Newark
(21.1200°N, 73.4000°E)
Time: 05:44:40
(UTC+00:00)

Envisat - Visible Passes

Search period start: 14 December 2019 00:00
Search period end: 24 December 2019 00:00
Orbit: 764 x 766 km, 98.1° (Epoch: 13 December)

Date Brightness Start Highest point End Pass type
(mag) Time Alt. Az. Time Alt. Az. Time Alt. Az.
14 Dec 6.0 00:41:20 10° ENE 00:44:22 16° E 00:47:24 10° SE visible
14 Dec 3.1 13:21:56 10° S 13:27:00 82° WSW 13:32:05 10° NNW visible
15 Dec 3.5 12:45:44 10° SE 12:50:22 37° ENE 12:55:00 10° N visible
15 Dec 5.9 14:26:27 10° SW 14:29:19 15° W 14:32:13 10° WNW visible
16 Dec 5.2 01:05:26 10° NE 01:09:55 32° E 01:14:24 10° SSE visible
16 Dec 4.4 13:47:44 10° S 13:52:28 40° W 13:57:14 10° NNW visible
17 Dec 6.4 00:31:23 10° ENE 00:33:02 11° E 00:34:42 10° ESE visible
17 Dec 2.9 13:10:42 10° SSE 13:15:44 75° ENE 13:20:49 10° N visible
18 Dec 5.6 14:14:19 10° SW 14:18:01 20° W 14:21:44 10° NW visible
19 Dec 5.7 00:54:35 10° NE 00:58:37 24° E 01:02:39 10° SSE visible
19 Dec 3.8 13:36:15 10° S 13:41:12 55° W 13:46:09 10° NNW visible
20 Dec 3.1 12:59:33 10° SSE 13:04:30 55° ENE 13:09:27 10° N visible
21 Dec 5.1 14:02:27 10° SSW 14:06:42 27° W 14:10:58 10° NW visible
22 Dec 6.0 00:43:56 10° NE 00:47:19 18° E 00:50:40 10° SE visible
22 Dec 3.2 13:24:52 10° S 13:29:55 74° WSW 13:34:59 10° NNW visible
23 Dec 3.4 12:48:32 10° SE 12:53:16 41° ENE 12:58:00 10° N visible
23 Dec 6.1 14:29:51 10° SW 14:32:16 13° W 14:34:42 10° WNW visible
